QFA115 YBHM-YBCS

Flight info

Callsign QFA115
Flight time N/A
Altitude 24000
Route OVRON Q67 CS
Aircraft DH8D/M-SDE2E3FGRY/H

Departure

Time 2026-05-05 22:25
Airport Hamilton Island Airport (YBHM)

Arrival

Time N/A
Airport Cairns International Airport (YBCS)
Time Latitude Longitude Altitude Speed Heading
2026-05-05 22:10 -20.35252 148.94991 40 ft 0 kts 143°
2026-05-05 22:22 -20.35253 148.94991 40 ft 2 kts 146°
2026-05-05 22:23 -20.35266 148.94948 33 ft 14 kts 318°
2026-05-05 22:23 -20.35241 148.94836 25 ft 19 kts 247°
2026-05-05 22:23 -20.35180 148.94710 20 ft 21 kts 322°
2026-05-05 22:23 -20.35088 148.94658 19 ft 12 kts 242°
2026-05-05 22:24 -20.35117 148.94656 19 ft 0 kts 141°
2026-05-05 22:24 -20.35244 148.94760 22 ft 63 kts 144°
2026-05-05 22:25 -20.35791 148.95198 28 ft 128 kts 143°
2026-05-05 22:25 -20.36571 148.95795 285 ft 143 kts 143°
2026-05-05 22:25 -20.37424 148.96477 640 ft 163 kts 144°
2026-05-05 22:25 -20.38277 148.97308 1107 ft 174 kts 120°
2026-05-05 22:26 -20.38302 148.98595 1585 ft 189 kts 66°
2026-05-05 22:26 -20.37250 148.99474 2055 ft 207 kts 16°
2026-05-05 22:26 -20.35823 148.99210 2546 ft 220 kts 327°
2026-05-05 22:26 -20.34856 148.97958 3060 ft 226 kts 298°
2026-05-05 22:27 -20.33995 148.96509 3570 ft 233 kts 305°
2026-05-05 22:27 -20.32993 148.95143 4070 ft 240 kts 310°
2026-05-05 22:27 -20.31864 148.93794 4570 ft 247 kts 314°
2026-05-05 22:27 -20.30653 148.92480 5068 ft 253 kts 316°
2026-05-05 22:28 -20.29354 148.91164 5569 ft 260 kts 318°
2026-05-05 22:28 -20.28007 148.89865 6071 ft 265 kts 320°
2026-05-05 22:28 -20.26618 148.88574 6761 ft 261 kts 320°
2026-05-05 22:28 -20.25248 148.87328 7419 ft 259 kts 321°
2026-05-05 22:29 -20.23900 148.86124 8065 ft 256 kts 321°
2026-05-05 22:29 -20.22526 148.84914 8633 ft 255 kts 322°
2026-05-05 22:29 -20.21149 148.83714 9187 ft 254 kts 322°
2026-05-05 22:29 -20.19772 148.82526 9696 ft 254 kts 322°
2026-05-05 22:30 -20.18399 148.81343 9911 ft 268 kts 322°
2026-05-05 22:30 -20.16844 148.80016 9612 ft 295 kts 322°
2026-05-05 22:30 -20.15234 148.78642 9838 ft 301 kts 322°
2026-05-05 22:30 -20.13604 148.77251 10193 ft 300 kts 321°
2026-05-05 22:31 -20.11958 148.75847 10507 ft 301 kts 321°
2026-05-05 22:31 -20.10317 148.74451 10827 ft 301 kts 321°
2026-05-05 22:31 -20.08682 148.73061 11099 ft 301 kts 321°
2026-05-05 22:31 -20.07048 148.71678 11436 ft 299 kts 321°
2026-05-05 22:32 -20.05420 148.70302 11789 ft 296 kts 321°
2026-05-05 22:32 -20.03810 148.68944 12140 ft 294 kts 321°
2026-05-05 22:32 -20.02223 148.67607 12479 ft 292 kts 321°
2026-05-05 22:32 -20.00637 148.66270 12826 ft 289 kts 321°
2026-05-05 22:33 -19.99075 148.64957 13173 ft 286 kts 320°
2026-05-05 22:33 -19.97514 148.63643 13523 ft 284 kts 320°
2026-05-05 22:33 -19.95967 148.62341 13870 ft 281 kts 320°
2026-05-05 22:33 -19.94450 148.61066 14213 ft 278 kts 320°
2026-05-05 22:34 -19.92924 148.59784 14561 ft 276 kts 320°
2026-05-05 22:34 -19.91434 148.58533 14907 ft 273 kts 320°
2026-05-05 22:34 -19.89945 148.57281 15258 ft 270 kts 320°
2026-05-05 22:34 -19.88489 148.56061 15606 ft 267 kts 320°
2026-05-05 22:35 -19.87043 148.54846 15956 ft 265 kts 319°
2026-05-05 22:35 -19.85602 148.53638 16304 ft 262 kts 319°
2026-05-05 22:35 -19.84173 148.52440 16651 ft 259 kts 319°
2026-05-05 22:35 -19.82770 148.51265 16997 ft 255 kts 319°
2026-05-05 22:36 -19.81396 148.50113 17340 ft 251 kts 319°
2026-05-05 22:36 -19.80035 148.48975 17688 ft 247 kts 319°
2026-05-05 22:36 -19.78708 148.47864 18027 ft 242 kts 319°
2026-05-05 22:36 -19.77388 148.46759 18369 ft 237 kts 319°
2026-05-05 22:37 -19.76107 148.45689 18711 ft 231 kts 319°
2026-05-05 22:37 -19.74874 148.44659 19047 ft 225 kts 318°
2026-05-05 22:37 -19.73663 148.43649 19387 ft 218 kts 318°
2026-05-05 22:37 -19.72485 148.42667 19721 ft 209 kts 318°
2026-05-05 22:38 -19.71365 148.41734 20051 ft 200 kts 318°
2026-05-05 22:38 -19.70294 148.40845 20373 ft 190 kts 317°
2026-05-05 22:38 -19.69286 148.40012 20687 ft 178 kts 318°
2026-05-05 22:38 -19.68354 148.39243 20985 ft 164 kts 317°
2026-05-05 22:39 -19.67474 148.38521 21167 ft 157 kts 317°
2026-05-05 22:39 -19.66580 148.37779 21066 ft 166 kts 317°
2026-05-05 22:39 -19.65674 148.37024 21073 ft 166 kts 317°
2026-05-05 22:39 -19.64775 148.36278 21195 ft 161 kts 317°
2026-05-05 22:40 -19.63884 148.35536 21177 ft 164 kts 317°
2026-05-05 22:40 -19.62982 148.34782 21173 ft 166 kts 317°
2026-05-05 22:40 -19.62073 148.34023 21242 ft 164 kts 317°
2026-05-05 22:40 -19.61183 148.33281 21288 ft 164 kts 317°
2026-05-05 22:41 -19.60283 148.32527 21310 ft 165 kts 317°
2026-05-05 22:41 -19.59376 148.31770 21343 ft 165 kts 317°
2026-05-05 22:41 -19.58474 148.31015 21395 ft 164 kts 317°
2026-05-05 22:41 -19.57566 148.30257 21417 ft 165 kts 317°
2026-05-05 22:42 -19.56660 148.29498 21454 ft 165 kts 317°
2026-05-05 22:42 -19.55734 148.28720 21288 ft 179 kts 317°
2026-05-05 22:42 -19.55125 148.28204 21138 ft 189 kts 317°
2026-05-05 22:42 -19.54042 148.27283 20879 ft 208 kts 318°
2026-05-05 22:43 -19.52855 148.26274 20609 ft 227 kts 318°
2026-05-05 22:43 -19.51573 148.25189 20337 ft 246 kts 318°
2026-05-05 22:43 -19.50185 148.24016 20111 ft 261 kts 319°
2026-05-05 22:43 -19.49081 148.23085 20056 ft 268 kts 319°
2026-05-05 22:44 -19.47594 148.21834 20024 ft 275 kts 319°
2026-05-05 22:44 -19.46089 148.20567 20015 ft 281 kts 319°
2026-05-05 22:44 -19.44534 148.19263 20010 ft 286 kts 319°
2026-05-05 22:44 -19.42964 148.17946 20012 ft 289 kts 319°
2026-05-05 22:45 -19.41363 148.16605 20007 ft 293 kts 319°
2026-05-05 22:45 -19.39759 148.15263 20003 ft 296 kts 319°
2026-05-05 22:45 -19.38149 148.13917 20003 ft 298 kts 319°
2026-05-05 22:45 -19.36513 148.12550 20002 ft 300 kts 319°
2026-05-05 22:46 -19.34875 148.11183 20005 ft 302 kts 319°
2026-05-05 22:46 -19.33214 148.09796 20001 ft 304 kts 319°
2026-05-05 22:46 -19.31537 148.08398 19999 ft 306 kts 319°
2026-05-05 22:46 -19.29866 148.07005 19999 ft 307 kts 319°
2026-05-05 22:47 -19.28180 148.05600 20000 ft 308 kts 319°
2026-05-05 22:47 -19.26479 148.04182 19992 ft 310 kts 319°
2026-05-05 22:47 -19.24776 148.02765 19992 ft 311 kts 319°
2026-05-05 22:47 -19.23096 148.01366 19999 ft 311 kts 319°
2026-05-05 22:48 -19.21390 147.99947 20006 ft 312 kts 319°
2026-05-05 22:48 -19.19670 147.98515 19998 ft 313 kts 319°
2026-05-05 22:48 -19.17955 147.97090 19997 ft 313 kts 319°
2026-05-05 22:48 -19.16229 147.95656 19997 ft 314 kts 319°
2026-05-05 22:49 -19.14530 147.94243 19996 ft 314 kts 319°
2026-05-05 22:49 -19.12800 147.92806 19997 ft 314 kts 319°
2026-05-05 22:49 -19.11073 147.91373 19998 ft 315 kts 319°
2026-05-05 22:49 -19.09351 147.89941 19995 ft 315 kts 319°
2026-05-05 22:50 -19.07640 147.88521 19995 ft 315 kts 319°
2026-05-05 22:50 -19.05902 147.87080 19997 ft 316 kts 319°
2026-05-05 22:50 -19.04168 147.85641 19997 ft 316 kts 319°
2026-05-05 22:50 -19.02444 147.84212 19994 ft 316 kts 319°
2026-05-05 22:51 -19.00705 147.82770 19993 ft 316 kts 319°
2026-05-05 22:51 -18.98968 147.81331 19992 ft 316 kts 319°
2026-05-05 22:51 -18.97247 147.79904 19994 ft 317 kts 319°
2026-05-05 22:51 -18.95501 147.78458 19995 ft 317 kts 319°
2026-05-05 22:52 -18.93767 147.77022 19998 ft 317 kts 319°
2026-05-05 22:52 -18.92013 147.75571 19998 ft 317 kts 319°
2026-05-05 22:52 -18.90294 147.74149 19996 ft 317 kts 319°
2026-05-05 22:52 -18.88539 147.72694 19998 ft 318 kts 319°
2026-05-05 22:53 -18.86808 147.71263 19999 ft 318 kts 319°
2026-05-05 22:53 -18.85062 147.69820 19991 ft 318 kts 319°
2026-05-05 22:53 -18.83308 147.68368 19994 ft 318 kts 319°
2026-05-05 22:53 -18.81560 147.66923 19998 ft 318 kts 319°
2026-05-05 22:54 -18.79826 147.65492 19999 ft 319 kts 319°
2026-05-05 22:54 -18.78070 147.64040 20001 ft 319 kts 319°
2026-05-05 22:54 -18.76319 147.62595 20002 ft 319 kts 319°
2026-05-05 22:54 -18.74575 147.61154 19999 ft 319 kts 319°
2026-05-05 22:55 -18.72829 147.59714 19995 ft 319 kts 319°
2026-05-05 22:55 -18.71068 147.58260 19998 ft 319 kts 319°
2026-05-05 22:55 -18.69303 147.56804 19997 ft 319 kts 319°
2026-05-05 22:55 -18.67571 147.55376 19993 ft 319 kts 319°
2026-05-05 22:56 -18.65810 147.53925 19997 ft 319 kts 319°
2026-05-05 22:56 -18.64072 147.52492 19999 ft 319 kts 319°
2026-05-05 22:56 -18.62304 147.51035 20002 ft 319 kts 319°
2026-05-05 22:56 -18.60565 147.49602 19998 ft 318 kts 319°
2026-05-05 22:57 -18.58805 147.48152 19999 ft 318 kts 319°
2026-05-05 22:57 -18.57058 147.46715 19998 ft 318 kts 319°
2026-05-05 22:57 -18.55330 147.45293 19994 ft 318 kts 319°
2026-05-05 22:57 -18.53571 147.43845 19990 ft 319 kts 319°
2026-05-05 22:58 -18.51813 147.42398 19988 ft 319 kts 319°
2026-05-05 22:58 -18.50076 147.40968 19989 ft 319 kts 319°
2026-05-05 22:58 -18.48315 147.39522 19994 ft 319 kts 319°
2026-05-05 22:58 -18.46580 147.38095 19998 ft 319 kts 319°
2026-05-05 22:59 -18.44818 147.36647 19996 ft 319 kts 319°
2026-05-05 22:59 -18.43067 147.35208 19997 ft 319 kts 319°
2026-05-05 22:59 -18.41314 147.33769 19992 ft 320 kts 319°
2026-05-05 22:59 -18.39551 147.32321 19989 ft 320 kts 320°
2026-05-05 23:00 -18.36041 147.29440 19999 ft 320 kts 319°
2026-05-05 23:00 -18.34276 147.27992 20000 ft 320 kts 319°
2026-05-05 23:00 -18.33087 147.27016 19995 ft 320 kts 319°
2026-05-05 23:01 -18.31307 147.25555 19991 ft 320 kts 320°
2026-05-05 23:01 -18.29554 147.24118 19993 ft 320 kts 319°
2026-05-05 23:01 -18.27781 147.22665 19998 ft 320 kts 319°
2026-05-05 23:01 -18.26016 147.21219 19996 ft 321 kts 319°
2026-05-05 23:02 -18.24264 147.19783 19995 ft 321 kts 319°
2026-05-05 23:02 -18.22492 147.18332 19991 ft 321 kts 319°
2026-05-05 23:02 -18.20732 147.16890 19989 ft 320 kts 319°
2026-05-05 23:02 -18.19480 147.15866 19995 ft 321 kts 319°